Regional Weather Roundup
Issued by NWS State College, PA

Home | Current Version | Previous Version | Graphics & Text | Print | Product List | Glossary On
Versions: 1 2 3 4 5 6 7 8 9 10 11 12 13 14 15 16 17 18 19 20 21 22 23 24 25 26 27 28 29 30 31 32 33 34 35 36 37 38 39 40 41 42 43 44 45 46 47 48 49 50
000
ASUS41 KCTP 050010
RWRCTP

REGIONAL WEATHER ROUNDUP
NATIONAL WEATHER SERVICE STATE COLLEGE PA
700 PM EST WED MAR 04 2015

Note: "fair" indicates few or no clouds below 12,000 feet with no
significant weather and/or obstructions to visibility.

* = STATION THAT DOES NOT REPORT PRECIPITATION /E.G. RAIN...SNOW...ETC/
    THUNDER OR FOG.

PAZ002>004-007>009-013>016-020>023-029>032-050100-
WESTERN PENNSYLVANIA

CITY           SKY/WX    TMP DP  RH WIND       PRES   REMARKS
ERIE           CLOUDY    32  23  69 W9        29.97R
MEADVILLE      CLOUDY    30  22  72 W8        29.94R
FRANKLIN*      CLOUDY    30  21  69 NW3       29.94S
NEW CASTLE     FAIR      33  26  76 VRB6      29.98R
BEAVER COUNTY  NOT AVBL
BUTLER*        CLOUDY    34  28  80 NW5       29.97R
PITTSBURGH INT LGT SNOW  33  32  96 W5        29.97R VSB 1
PITTSBURGH     LGT SNOW  32  29  88 W3        29.95R VSB 1
INDIANA*       FOG       32  32 100 W7        29.98R VSB 1
LATROBE        LGT SNOW  32  32 100 CALM      29.97R
WASHINGTON CO* CLOUDY    32  30  93 SW3       29.99R
$$

PAZ004>006-010>012-017>019-024>028-033>037-041-042-045-046-049>053-050100-
CENTRAL PENNSYLVANIA

CITY           SKY/WX    TMP DP  RH WIND       PRES   REMARKS
BRADFORD       CLOUDY    29  21  72 W10G20    29.87R
DUBOIS         LGT SNOW  31  28  89 W13       29.89R VSB 1
CLEARFIELD     LGT SNOW  33  31  92 SW5       29.90R FOG
JOHNSTOWN      LGT SNOW  31  30  96 W7        29.88R FOG
ALTOONA        CLOUDY    35  31  85 CALM      29.89R
STATE COLLEGE  CLOUDY    36  30  80 W6        29.90R
WILLIAMSPORT   CLOUDY    35  32  88 CALM      29.89R
SELINSGROVE    CLOUDY    37  34  89 CALM      29.90S
FT INDIANTOWN  DRIZZLE   39  36  91 SW2       29.88S
CAPITAL CITY   CLOUDY    38  37  97 W3        29.90R FOG
HARRISBURG     LGT RAIN  38  37  97 VRB3      29.89S
YORK           MIX PCPN  36  36 100 CALM      29.89S VSB 1/4
$$

PAZ038>040-043-044-047-048-054-055-060>062-067>071-050100-
EASTERN PENNSYLVANIA

CITY           SKY/WX    TMP DP  RH WIND       PRES   REMARKS
SCRANTON       CLOUDY    39  32  76 SW7       29.84F
MOUNT POCONO   CLOUDY    35  31  85 W14       29.80F
ALLENTOWN      LGT RAIN  38  35  89 SW3       29.88F FOG
QUAKERTOWN*    CLOUDY    37  37 100 CALM      29.89F VSB<1/4
READING        FOG       39  38  96 CALM      29.89S VSB 1/2
LANCASTER      LGT RAIN  38  37  97 CALM      29.88F VSB 1/4
COATESVILLE    FOG       39  39 100 CALM      29.89S VSB 1/2
POTTSTOWN      FOG       37  37 100 CALM      29.90F VSB 1/4
BLUE BELL      CLOUDY    41  39  93 CALM      29.89S VSB 1/4
DOYLESTOWN     FOG       39  39 100 CALM      29.88F VSB 1
WILLOW GROVE   NOT AVBL
NORTH PHILA    FOG       43  39  86 CALM      29.92S VSB 1
PHILADELPHIA   LGT RAIN  41  40  96 CALM      29.90F FOG
$$



USA.gov is the U.S. government's official web portal to all federal, state and local government web resources and services.